When you browse on this site, cookies collect data to enhance your experience and personalize the content and advertising you see.
Visit our Privacy Policy to learn more. By continuing to use the site, you agree to this use of cookies and data.
  • In Hungary
  • List of Countries
  • For 7 days
  • Water Temperature
  • Satellite Maps
  • Weather Map
  • News
  • Weather Widgets
  • user-avatar
    Login

    Hourly Weather Nuzhyaly

    Today, 16 November, Friday

    Time Temperature Precipitation Wind Pressure Humidity
    00:00 -5°C° 0 mm 2 mps 772 mmHg 36%
    01:00 -5°C° 0 mm 2 mps 772 mmHg 35%
    02:00 -5°C° 0 mm 2 mps 772 mmHg 35%
    03:00 -6°C° 0 mm 2 mps 772 mmHg 34%
    04:00 -6°C° 0 mm 2 mps 772 mmHg 35%
    05:00 -6°C° 0 mm 2 mps 772 mmHg 35%
    06:00 -6°C° 0 mm 2 mps 772 mmHg 35%
    07:00 -6°C° 0 mm 2 mps 772 mmHg 34%
    08:00 -7°C° 0 mm 3 mps 772 mmHg 33%
    09:00 -6°C° 0 mm 3 mps 772 mmHg 32%
    10:00 -5°C° 0 mm 3 mps 772 mmHg 31%
    11:00 -5°C° 0 mm 3 mps 772 mmHg 29%
    12:00 -4°C° 0 mm 3 mps 772 mmHg 28%
    13:00 -4°C° 0 mm 3 mps 772 mmHg 29%
    14:00 -4°C° 0 mm 3 mps 771 mmHg 29%
    15:00 -4°C° 0 mm 3 mps 771 mmHg 29%
    16:00 -4°C° 0 mm 4 mps 771 mmHg 30%
    17:00 -4°C° 0 mm 4 mps 770 mmHg 31%
    18:00 -5°C° 0 mm 4 mps 770 mmHg 33%
    19:00 -5°C° 0 mm 4 mps 770 mmHg 35%
    20:00 -5°C° 0 mm 4 mps 769 mmHg 38%
    21:00 -4°C° 0 mm 4 mps 769 mmHg 40%
    22:00 -4°C° 0 mm 4 mps 769 mmHg 44%
    23:00 -4°C° 0 mm 4 mps 768 mmHg 48%

    Tomorrow, 17 November, Saturday

    Time Temperature Precipitation Wind Pressure Humidity
    00:00 -4°C° 0 mm 4 mps 768 mmHg 52%
    01:00 -4°C° 0 mm 4 mps 768 mmHg 56%
    02:00 -4°C° 0 mm 4 mps 767 mmHg 59%
    03:00 -4°C° 0 mm 4 mps 767 mmHg 63%
    04:00 -4°C° 0 mm 4 mps 766 mmHg 66%
    05:00 -4°C° 0 mm 4 mps 766 mmHg 69%
    06:00 -4°C° 0 mm 4 mps 765 mmHg 72%
    07:00 -4°C° 0 mm 4 mps 765 mmHg 73%
    08:00 -4°C° 0 mm 4 mps 764 mmHg 74%
    09:00 -4°C° 0 mm 4 mps 764 mmHg 75%
    10:00 -3°C° 0 mm 4 mps 763 mmHg 74%
    11:00 -3°C° 0 mm 4 mps 762 mmHg 72%
    12:00 -2°C° 0 mm 4 mps 762 mmHg 71%
    13:00 -2°C° 0 mm 4 mps 761 mmHg 72%
    14:00 -2°C° 0 mm 4 mps 760 mmHg 73%
    15:00 -2°C° 0 mm 4 mps 760 mmHg 75%
    16:00 -2°C° 0 mm 4 mps 759 mmHg 77%
    17:00 -2°C° 0 mm 4 mps 758 mmHg 78%
    18:00 -2°C° 0 mm 4 mps 758 mmHg 80%
    19:00 -2°C° 0.1 mm 4 mps 757 mmHg 82%
    20:00 -2°C° 0.1 mm 4 mps 756 mmHg 84%
    21:00 -2°C° 0.1 mm 4 mps 755 mmHg 87%
    22:00 -2°C° 0.2 mm 4 mps 755 mmHg 88%
    23:00 -2°C° 0.2 mm 4 mps 754 mmHg 89%

    Day after tomorrow, 18 November, Sunday

    Time Temperature Precipitation Wind Pressure Humidity
    00:00 -2°C° 0.2 mm 4 mps 754 mmHg 91%
    01:00 -2°C° 0.4 mm 4 mps 753 mmHg 91%
    02:00 -2°C° 0.4 mm 4 mps 753 mmHg 92%
    03:00 -2°C° 0.4 mm 4 mps 753 mmHg 92%
    04:00 -2°C° 0.3 mm 3 mps 752 mmHg 92%
    05:00 -2°C° 0.3 mm 3 mps 752 mmHg 92%
    06:00 -2°C° 0.3 mm 3 mps 751 mmHg 91%
    07:00 -2°C° 0.1 mm 3 mps 752 mmHg 91%
    08:00 -2°C° 0.1 mm 3 mps 752 mmHg 90%
    09:00 -2°C° 0.1 mm 3 mps 752 mmHg 90%
    10:00 -1°C° 0.1 mm 3 mps 752 mmHg 89%
    11:00 -1°C° 0.1 mm 3 mps 752 mmHg 88%
    12:00 -1°C° 0.1 mm 3 mps 752 mmHg 87%
    13:00 -1°C° 0.1 mm 3 mps 753 mmHg 88%
    14:00 -1°C° 0.1 mm 2 mps 753 mmHg 89%
    15:00 -1°C° 0.1 mm 2 mps 753 mmHg 89%
    16:00 -1°C° 0 mm 2 mps 754 mmHg 90%
    17:00 -2°C° 0 mm 2 mps 754 mmHg 91%
    18:00 -2°C° 0 mm 2 mps 754 mmHg 92%
    19:00 -2°C° 0 mm 2 mps 755 mmHg 92%
    20:00 -2°C° 0 mm 2 mps 755 mmHg 92%
    21:00 -2°C° 0 mm 2 mps 755 mmHg 92%
    22:00 -2°C° 0 mm 2 mps 756 mmHg 92%
    23:00 0°C° 0 mm 1 mps 756 mmHg 92%

    19 November, Monday

    Time Temperature Precipitation Wind Pressure Humidity
    00:00 0°C° 0 mm 1 mps 757 mmHg 93%
    01:00 0°C° 0 mm 1 mps 757 mmHg 93%
    02:00 0°C° 0 mm 1 mps 758 mmHg 93%
    03:00 0°C° 0 mm 1 mps 758 mmHg 93%
    04:00 0°C° 0 mm 1 mps 759 mmHg 92%
    05:00 0°C° 0 mm 1 mps 759 mmHg 92%
    06:00 0°C° 0 mm 1 mps 760 mmHg 91%
    07:00 0°C° 0 mm 1 mps 760 mmHg 89%
    08:00 0°C° 0 mm 1 mps 761 mmHg 88%
    09:00 -1°C° 0 mm 0 mps 762 mmHg 86%
    10:00 0°C° 0 mm 0 mps 762 mmHg 84%
    11:00 0°C° 0 mm 0 mps 763 mmHg 81%
    12:00 +1°C° 0 mm 0 mps 763 mmHg 79%
    13:00 0°C° 0 mm 0 mps 764 mmHg 81%
    14:00 -1°C° 0 mm 0 mps 764 mmHg 83%
    15:00 -1°C° 0 mm 0 mps 765 mmHg 85%
    16:00 -2°C° 0 mm 0 mps 765 mmHg 87%
    17:00 -2°C° 0 mm 0 mps 765 mmHg 88%
    18:00 -1°C° 0 mm 1 mps 766 mmHg 90%
    19:00 -1°C° 0 mm 1 mps 766 mmHg 91%
    20:00 -1°C° 0 mm 1 mps 766 mmHg 92%
    21:00 -1°C° 0 mm 1 mps 766 mmHg 93%
    22:00 -1°C° 0 mm 1 mps 767 mmHg 94%
    23:00 -1°C° 0 mm 1 mps 767 mmHg 95%

    20 November, Tuesday

    Time Temperature Precipitation Wind Pressure Humidity
    00:00 -1°C° 0 mm 1 mps 767 mmHg 95%
    01:00 -1°C° 0 mm 1 mps 767 mmHg 95%
    02:00 -1°C° 0 mm 1 mps 767 mmHg 96%
    03:00 0°C° 0 mm 1 mps 767 mmHg 96%
    04:00 0°C° 0 mm 1 mps 767 mmHg 96%
    05:00 0°C° 0 mm 1 mps 767 mmHg 95%
    06:00 0°C° 0 mm 1 mps 767 mmHg 95%
    07:00 0°C° 0 mm 1 mps 767 mmHg 95%
    08:00 0°C° 0 mm 1 mps 767 mmHg 94%
    09:00 0°C° 0 mm 1 mps 767 mmHg 94%
    10:00 +1°C° 0 mm 1 mps 767 mmHg 92%
    11:00 +1°C° 0 mm 1 mps 766 mmHg 91%
    12:00 +1°C° 0 mm 1 mps 766 mmHg 89%
    13:00 +1°C° 0 mm 1 mps 766 mmHg 91%
    14:00 +1°C° 0 mm 1 mps 766 mmHg 92%
    15:00 0°C° 0 mm 1 mps 765 mmHg 94%
    16:00 0°C° 0 mm 1 mps 765 mmHg 94%
    17:00 0°C° 0 mm 1 mps 765 mmHg 95%
    18:00 0°C° 0 mm 1 mps 765 mmHg 95%
    19:00 0°C° 0 mm 1 mps 764 mmHg 95%
    20:00 -2°C° 0 mm 2 mps 764 mmHg 95%
    21:00 -2°C° 0 mm 2 mps 763 mmHg 96%
    22:00 -3°C° 0 mm 2 mps 763 mmHg 95%
    23:00 -3°C° 0 mm 2 mps 763 mmHg 95%

    21 November, Wednesday

    Time Temperature Precipitation Wind Pressure Humidity
    00:00 -3°C° 0 mm 2 mps 763 mmHg 95%
    01:00 -3°C° 0 mm 2 mps 762 mmHg 95%
    02:00 -4°C° 0 mm 2 mps 762 mmHg 95%
    03:00 -4°C° 0 mm 2 mps 761 mmHg 96%
    04:00 -4°C° 0 mm 2 mps 761 mmHg 95%
    05:00 -4°C° 0 mm 2 mps 760 mmHg 94%
    06:00 -4°C° 0 mm 2 mps 760 mmHg 93%
    07:00 -4°C° 0 mm 2 mps 760 mmHg 92%
    08:00 -4°C° 0 mm 2 mps 759 mmHg 91%
    09:00 -4°C° 0 mm 2 mps 759 mmHg 90%
    10:00 -4°C° 0 mm 2 mps 759 mmHg 88%
    11:00 -4°C° 0 mm 2 mps 758 mmHg 85%
    12:00 -3°C° 0 mm 2 mps 758 mmHg 83%
    13:00 -3°C° 0 mm 2 mps 757 mmHg 83%
    14:00 -3°C° 0 mm 2 mps 757 mmHg 84%
    15:00 -4°C° 0 mm 2 mps 756 mmHg 84%
    16:00 -4°C° 0 mm 2 mps 756 mmHg 86%
    17:00 -4°C° 0 mm 2 mps 755 mmHg 87%
    18:00 -5°C° 0 mm 2 mps 755 mmHg 89%
    19:00 -5°C° 0 mm 2 mps 755 mmHg 90%
    20:00 -5°C° 0 mm 2 mps 754 mmHg 91%
    21:00 -5°C° 0 mm 2 mps 754 mmHg 92%
    22:00 -5°C° 0 mm 2 mps 754 mmHg 94%
    23:00 -5°C° 0 mm 2 mps 753 mmHg 95%
    Show more